Temp
6 6 6 6 6 6 6 6 5 6 6 6 6 6 6 6 6 6 6 6 6 6 6 6 6 6 7 7 7 7 7 6 6 6 6 6 6 6 5 5 5 5 5 5 5 5 5
6 6 6 6 6 6 6 5 5 5 5 6 5 5 5 5 6 6 6 6 6 6 6 6 6 6 6 6 6 7 6 6 6 6 6 6 5 5 5 5 5 5 5 5 5 5 5
6 6 6 5 5 5 5 5 5 5 5 5 5 5 5 5 5 5 5 5 5 6 6 6 6 6 6 6 6 6 6 6 6 6 5 5 5 5 5 4 4 4 4 4 4 4 4
5 5 5 5 5 5 5 5 5 5 5 5 5 5 5 5 5 5 5 5 5 5 6 6 6 6 6 6 6 6 6 5 6 5 5 5 5 4 4 4 4 3 4 3 3 3 3
5 5 5 5 5 5 5 5 5 5 5 5 5 5 5 5 5 5 5 5 5 5 5 5 5 5 5 5 5 5 5 5 5 5 5 5 4 4 3 3 3 3 3 3 2 2 2
5 5 5 5 5 5 5 5 5 5 5 5 5 4 5 5 4 4 4 5 5 5 5 5 5 5 5 5 5 4 4 4 4 4 4 4 4 3 3 3 2 2 2 2 2 2 2
4 4 4 5 5 5 4 4 4 4 4 4 4 4 4 4 4 4 4 4 4 5 4 4 4 4 4 4 4 4 4 3 3 4 3 3 3 2 2 2 2 2 1 1 1 1 2
4 4 4 4 4 4 4 4 4 4 4 4 4 4 4 4 4 4 4 4 4 3 4 4 3 3 4 4 3 3 3 3 3 3 3 3 2 2 2 2 1 2 1 2 1 1 1
3 4 4 4 4 4 4 4 4 4 4 4 3 3 3 3 3 3 3 3 3 3 3 3 3 3 3 3 3 3 3 2 2 2 2 2 2 1 1 1 1 1 1 0 -0 -0 0
2 3 3 3 3 3 3 3 3 3 3 3 3 3 3 3 3 3 3 3 3 3 3 2 2 2 2 3 3 3 3 2 2 2 2 1 1 1 1 1 1 1 0 -0 -1 -2 -2
0 2 2 2 3 3 3 3 3 3 2 2 2 3 2 2 2 2 2 2 2 3 -1 1 1 1 2 2 2 2 2 2 2 1 1 1 1 1 1 0 0 -0 -0 -1 -1 -2 -4
1 1 2 2 2 2 2 2 2 2 2 1 2 2 2 2 2 2 2 2 2 2 0 1 1 1 1 1 1 1 1 1 1 1 1 1 0 0 0 -0 -1 -1 -1 -1 -2 -4 -7
0 0 1 1 1 2 1 2 2 1 1 1 1 1 1 1 1 1 1 1 1 1 1 1 1 1 1 1 1 0 0 0 0 -0 -0 -0 -1 -1 -1 -1 -1 -2 -2 -2 -5 -5 -5
0 0 0 1 1 1 1 1 1 1 0 1 1 -0 0 1 1 1 0 0 0 1 1 0 0 0 0 0 0 0 -0 -0 -1 -1 -1 -1 -1 -1 -1 -1 -2 -2 -2 -3 -7 -6 -7
-0 -0 0 0 1 1 1 -0 0 0 1 1 0 0 -0 0 0 0 -0 -0 0 0 0 -0 -0 -0 -0 -0 -0 -1 -1 -1 -1 -1 -1 -2 -1 -1 -2 -3 -3 -4 -3 -3 -5 -7 -10
-1 -0 -0 -0 -0 0 0 -0 0 0 0 0 0 0 -0 -0 0 -1 -1 -1 -0 -0 -0 -1 -1 -1 -1 -1 -1 -1 -1 -1 -2 -2 -3 -3 -3 -2 -2 -3 -3 -4 -4 -5 -5 -9 -8
-0 -0 -1 -0 0 -0 -0 -0 -0 0 -0 -0 0 -0 -1 -1 -1 -1 -1 -1 -1 -1 -1 -1 -1 -1 -2 -1 -1 -2 -2 -2 -2 -3 -3 -3 -4 -4 -4 -3 -4 -5 -5 -5 -5 -5 -10
-1 -1 -0 -1 -0 -1 -0 -0 -0 -1 -0 -1 -0 -0 -1 -1 -1 -1 -1 -1 -1 -1 -2 -2 -2 -2 -2 -2 -2 -2 -2 -2 -3 -3 -4 -4 -5 -5 -5 -5 -5 -6 -6 -6 -6 -7 -7
-1 -1 -1 -1 -0 -0 -0 -1 -1 -0 -1 -1 -1 -1 -1 -2 -1 -1 -1 -2 -2 -2 -2 -2 -2 -2 -2 -3 -3 -3 -3 -3 -4 -4 -4 -5 -6 -6 -6 -6 -5 -6 -5 -5 -6 -7 -7
-1 -1 -1 -1 -1 -1 -0 -1 -1 -1 -1 -1 -1 -1 -1 -2 -1 -1 -2 -2 -2 -2 -2 -2 -2 -3 -3 -4 -4 -3 -4 -4 -4 -5 -6 -7 -7 -6 -6 -5 -6 -7 -7 -8 -8 -9 -8
-2 -2 0 -1 -1 -1 -1 -1 -1 -1 -1 -1 -2 -2 -1 -1 -1 -1 -2 -2 -2 -2 -2 -3 -4 -3 -4 -4 -4 -4 -5 -5 -5 -5 -6 -7 -7 -6 -6 -6 -6 -7 -8 -8 -9 -8 -10
-2 -3 -2 -1 -1 -1 -1 -1 -1 -2 -1 -2 -1 -1 -2 -2 -2 -2 -2 -3 -1 -3 -3 -3 -4 -4 -4 -5 -5 -5 -5 -6 -7 -6 -7 -7 -7 -7 -7 -7 -7 -7 -7 -6 -6 -8 -9
-2 -2 -2 -2 -2 -2 -2 -1 -2 -2 -3 -2 -1 -1 -2 -2 -2 -3 -3 -2 -3 -3 -4 -4 -5 -5 -5 -5 -6 -6 -6 -6 -7 -7 -7 -8 -8 -9 -9 -8 -8 -7 -3 -4 -5 -6 -6
-2 -3 -3 -4 -3 -2 -1 -2 -2 -2 -2 -2 -3 -1 -2 -2 -3 -4 -4 -4 -4 -4 -4 -5 -5 -6 -5 -6 -6 -6 -6 -6 -6 -7 -7 -9 -9 -10 -10 -10 -13 -5 -5 -6 -6 -7 -8
-2 -2 -3 -3 -3 -1 -0 -0 0 -1 -1 -2 -2 -2 -3 -3 -3 -4 -5 -4 -4 -4 -5 -5 -5 -6 -5 -6 -6 -6 -6 -6 -5 -6 -7 -8 -11 -11 -11 -12 -7 -6 -6 -7 -7 -8 -9
-2 -2 -1 -0 -1 -0 -0 -0 -1 -1 -2 -3 -4 -3 -3 -4 -4 -5 -5 -4 -4 -5 -5 -6 -6 -6 -6 -6 -7 -9 -8 -6 -6 -7 -7 -7 -10 -12 -13 -13 -15 -7 -7 -8 -9 -9 -9
-3 -3 -2 -1 -1 -1 -1 -1 -1 -1 -2 -2 -3 -4 -5 -5 -4 -5 -5 -5 -6 -6 -6 -6 -6 -6 -6 -7 -9 -9 -9 -8 -8 -8 -7 -8 -9 -11 -13 -14 -10 -9 -9 -9 -11 -10 -11
-4 -4 -3 -2 -1 -1 -1 -1 -1 -1 -2 -2 -4 -5 -5 -5 -5 -6 -5 -5 -5 -5 -5 -6 -6 -6 -6 -8 -9 -8 -8 -8 -8 -8 -8 -8 -9 -11 -13 -15 -14 -8 -9 -11 -11 -12 -13
-4 -4 -3 -3 -2 -2 -1 -1 -1 -2 -4 -5 -5 -5 -5 -5 -6 -6 -6 -4 -5 -5 -5 -7 -6 -7 -7 -7 -8 -8 -8 -9 -9 -9 -9 -10 -10 -9 -10 -9 -9 -10 -11 -11 -12 -13 -14
Height
3141 3142 3143 3144 3145 3145 3146 3147 3147 3147 3147 3147 3147 3147 3147 3146 3145 3144 3143 3142 3141 3140 3139 3138 3137 3137 3136 3136 3136 3135 3134 3134 3134 3134 3135 3136 3137 3139 3140 3141 3143 3143 3145 3146 3148 3148 3149
3139 3140 3141 3142 3144 3144 3145 3147 3147 3146 3146 3146 3147 3146 3146 3146 3145 3144 3143 3142 3141 3139 3138 3137 3136 3136 3136 3135 3133 3133 3132 3133 3133 3133 3133 3134 3135 3136 3137 3138 3140 3141 3142 3143 3144 3145 3146
3136 3138 3139 3141 3141 3143 3144 3145 3145 3145 3146 3146 3145 3145 3145 3145 3144 3144 3143 3141 3140 3138 3138 3136 3135 3134 3133 3134 3132 3131 3131 3130 3131 3131 3131 3132 3133 3135 3135 3136 3137 3138 3139 3140 3140 3141 3141
3133 3135 3136 3138 3139 3141 3142 3143 3143 3144 3144 3145 3144 3144 3144 3144 3143 3142 3142 3141 3139 3138 3136 3134 3133 3132 3131 3130 3130 3130 3130 3129 3129 3129 3130 3131 3131 3132 3134 3135 3135 3136 3137 3136 3137 3137 3137
3129 3131 3133 3135 3137 3138 3139 3140 3141 3141 3142 3143 3143 3143 3143 3142 3142 3140 3139 3138 3137 3136 3134 3132 3131 3130 3130 3129 3129 3129 3129 3129 3128 3128 3128 3129 3130 3131 3133 3133 3134 3134 3134 3135 3135 3134 3134
3124 3127 3129 3131 3133 3135 3136 3138 3138 3139 3140 3140 3141 3142 3141 3141 3140 3138 3137 3136 3135 3134 3132 3130 3129 3131 3129 3128 3127 3126 3127 3127 3127 3127 3127 3128 3128 3129 3130 3131 3132 3132 3132 3132 3133 3133 3131
3119 3122 3124 3127 3129 3131 3133 3134 3136 3137 3137 3138 3139 3139 3139 3139 3138 3137 3136 3135 3136 3133 3130 3129 3128 3126 3125 3124 3124 3123 3123 3124 3125 3125 3125 3126 3127 3128 3128 3129 3129 3130 3130 3129 3129 3128 3126
3113 3116 3119 3122 3125 3127 3129 3130 3132 3134 3135 3135 3136 3137 3137 3137 3136 3135 3133 3132 3131 3131 3128 3125 3124 3123 3122 3121 3121 3120 3122 3124 3123 3123 3124 3126 3126 3127 3127 3128 3128 3128 3127 3126 3125 3124 3124
3107 3110 3114 3116 3119 3122 3124 3126 3128 3130 3132 3132 3133 3134 3134 3134 3133 3133 3131 3130 3129 3127 3126 3124 3123 3122 3122 3122 3120 3120 3121 3121 3121 3122 3122 3123 3125 3125 3126 3127 3127 3126 3125 3124 3124 3121 3119
3101 3104 3108 3111 3114 3118 3120 3122 3124 3125 3127 3129 3129 3130 3131 3131 3132 3130 3129 3128 3127 3125 3123 3124 3122 3122 3122 3121 3122 3121 3121 3122 3121 3121 3121 3122 3123 3124 3124 3125 3125 3124 3122 3121 3120 3119 3118
3094 3099 3102 3105 3108 3111 3115 3118 3120 3120 3122 3124 3126 3127 3127 3127 3127 3127 3128 3126 3125 3124 3124 3124 3121 3121 3121 3123 3123 3121 3121 3120 3120 3121 3123 3123 3122 3123 3123 3123 3123 3123 3120 3118 3115 3113 3112
3087 3089 3094 3097 3102 3105 3108 3111 3114 3117 3118 3120 3121 3123 3123 3124 3124 3124 3124 3124 3124 3125 3119 3120 3120 3120 3121 3120 3120 3119 3119 3119 3119 3119 3119 3120 3120 3121 3120 3120 3120 3119 3118 3114 3110 3110 3110
3079 3084 3087 3092 3096 3099 3102 3105 3108 3111 3113 3115 3116 3118 3119 3120 3121 3121 3121 3122 3124 3120 3120 3120 3119 3119 3119 3119 3118 3118 3118 3118 3118 3118 3119 3119 3118 3118 3118 3118 3118 3117 3116 3113 3112 3109 3109
3071 3076 3081 3085 3088 3092 3095 3098 3102 3105 3107 3110 3111 3113 3114 3116 3117 3118 3118 3120 3120 3117 3117 3117 3118 3117 3117 3117 3117 3116 3116 3115 3115 3115 3116 3117 3116 3117 3117 3117 3117 3115 3115 3116 3121 3114 3108
3063 3067 3072 3076 3081 3084 3088 3092 3095 3097 3100 3102 3102 3107 3109 3111 3113 3114 3116 3116 3113 3114 3115 3115 3115 3114 3114 3115 3116 3114 3114 3114 3113 3114 3117 3115 3115 3114 3113 3113 3115 3113 3114 3115 3114 3111 3108
3055 3059 3063 3068 3073 3076 3080 3084 3087 3089 3092 3095 3097 3100 3103 3107 3108 3110 3112 3112 3111 3111 3111 3111 3114 3114 3113 3113 3114 3113 3112 3113 3113 3112 3112 3113 3113 3110 3110 3111 3111 3111 3113 3112 3113 3114 3109
3048 3053 3057 3059 3065 3069 3072 3076 3079 3082 3086 3088 3090 3093 3097 3100 3103 3105 3106 3106 3108 3108 3109 3109 3108 3110 3111 3111 3111 3111 3110 3112 3111 3111 3110 3109 3110 3110 3109 3108 3107 3108 3108 3110 3110 3110 3109
3041 3046 3050 3052 3056 3061 3065 3068 3071 3074 3079 3083 3085 3087 3091 3094 3099 3100 3101 3102 3105 3105 3105 3105 3106 3106 3106 3108 3108 3107 3107 3108 3108 3108 3108 3107 3106 3104 3105 3103 3102 3103 3104 3105 3105 3104 3102
3034 3035 3038 3042 3046 3052 3058 3061 3064 3068 3073 3076 3077 3080 3084 3089 3092 3093 3096 3098 3099 3102 3102 3102 3103 3102 3103 3104 3106 3104 3103 3104 3104 3104 3103 3102 3100 3100 3098 3100 3098 3098 3098 3099 3099 3097 3089
3026 3027 3027 3031 3036 3043 3049 3052 3057 3061 3065 3070 3071 3073 3077 3081 3085 3089 3091 3093 3095 3096 3098 3098 3100 3099 3100 3100 3100 3100 3100 3100 3100 3101 3100 3099 3095 3094 3093 3093 3093 3092 3094 3095 3095 3090 3079
3017 3018 3017 3023 3028 3033 3039 3044 3050 3053 3057 3062 3063 3065 3071 3074 3079 3082 3084 3086 3087 3090 3092 3093 3094 3096 3096 3096 3096 3096 3097 3097 3096 3095 3095 3094 3091 3089 3087 3087 3083 3080 3082 3084 3081 3077 3075
3012 3013 3010 3015 3020 3026 3029 3033 3039 3045 3049 3053 3057 3061 3067 3072 3074 3078 3079 3078 3081 3085 3085 3088 3090 3092 3092 3091 3092 3092 3092 3092 3091 3089 3089 3088 3084 3081 3074 3079 3074 3066 3067 3067 3064 3064 3059
3005 3009 3008 3009 3015 3019 3023 3027 3034 3039 3046 3047 3052 3056 3062 3066 3069 3073 3074 3077 3077 3079 3081 3080 3083 3086 3086 3087 3087 3086 3085 3084 3082 3083 3084 3084 3082 3078 3068 3068 3065 3058 3051 3052 3053 3052 3052
2997 3004 3005 3008 3010 3016 3021 3026 3032 3037 3040 3044 3049 3054 3056 3060 3063 3069 3070 3073 3073 3075 3076 3076 3077 3078 3081 3080 3080 3079 3078 3077 3076 3074 3074 3075 3076 3077 3067 3066 3062 3047 3046 3046 3044 3040 3041
2992 2998 3000 3006 3009 3012 3015 3021 3027 3030 3033 3037 3044 3047 3049 3052 3058 3060 3064 3069 3068 3071 3072 3071 3074 3073 3073 3074 3074 3073 3071 3070 3065 3064 3064 3067 3070 3071 3069 3062 3049 3042 3041 3040 3037 3030 3032
2984 2991 2994 3002 3005 3009 3011 3016 3019 3022 3027 3033 3038 3040 3044 3050 3052 3056 3054 3062 3063 3067 3069 3068 3067 3067 3068 3069 3069 3069 3068 3064 3061 3059 3060 3060 3061 3065 3062 3061 3052 3037 3036 3033 3030 3023 3022
2979 2986 2988 2994 2998 3002 3007 3010 3013 3016 3022 3026 3030 3035 3040 3043 3048 3051 3051 3054 3056 3062 3063 3062 3063 3063 3063 3064 3064 3065 3061 3059 3057 3054 3054 3054 3054 3052 3053 3052 3038 3032 3029 3027 3027 3024 3016
2975 2981 2986 2989 2993 2998 3002 3005 3008 3013 3016 3020 3026 3031 3036 3040 3043 3047 3048 3048 3050 3054 3056 3056 3058 3055 3056 3058 3057 3056 3052 3052 3050 3047 3047 3047 3048 3045 3045 3046 3034 3026 3023 3023 3017 3011 3008
2973 2978 2982 2987 2990 2994 2998 3000 3004 3009 3012 3016 3022 3027 3032 3037 3040 3043 3043 3043 3044 3047 3050 3049 3051 3051 3052 3051 3051 3049 3048 3045 3043 3040 3039 3040 3037 3038 3036 3027 3023 3019 3014 3010 3006 3002 2999
Wind_Speed
9 8 8 7 7 6 5 5 4 3 2 2 3 4 6 8 8 8 9 9 8 7 7 6 7 6 5 5 5 6 7 8 8 8 10 11 11 12 14 13 16 17 17 18 17 19 19
10 10 9 9 8 8 7 6 5 4 4 3 4 4 5 6 7 7 8 8 9 9 9 8 7 8 8 8 8 8 8 8 9 10 9 10 12 13 14 14 15 13 15 17 19 20 20
13 11 10 10 9 9 8 8 7 6 6 5 4 5 5 7 8 9 9 8 9 10 9 9 9 9 10 10 8 6 5 5 5 7 10 11 11 12 13 12 14 15 15 16 17 18 21
15 13 12 11 10 10 9 10 8 8 8 7 6 6 7 8 9 11 11 10 11 11 11 11 10 10 9 6 6 6 6 5 5 5 7 9 11 12 12 13 12 11 13 14 15 17 20
18 16 15 14 13 12 11 11 10 10 9 8 7 8 8 10 11 12 12 13 13 13 13 12 12 9 6 5 5 5 5 7 8 7 6 7 8 9 9 10 11 10 10 11 13 13 16
21 19 18 16 15 14 13 12 12 11 11 10 9 9 10 11 11 12 13 13 14 14 12 12 8 8 8 10 13 12 12 11 10 9 8 7 7 8 8 9 6 5 8 11 11 13 17
25 23 21 19 18 16 15 14 14 13 12 12 11 11 11 11 12 13 14 14 14 13 12 12 13 11 11 10 11 11 10 9 8 8 7 7 8 8 8 9 11 12 14 16 17 20 25
29 26 24 22 20 19 17 16 15 15 15 14 13 13 13 13 13 13 13 13 13 13 13 12 9 5 4 4 4 4 5 5 6 6 6 6 7 8 9 9 10 11 14 16 17 15 22
31 29 27 24 22 21 20 18 17 17 17 16 15 15 14 14 14 13 13 12 12 13 14 7 3 4 5 4 6 5 2 2 3 4 4 5 5 5 5 7 9 11 14 16 17 21 23
34 30 28 26 24 23 22 21 20 19 19 19 18 17 16 15 14 13 12 12 12 12 7 3 1 0 6 3 5 6 6 4 2 1 2 3 3 6 6 7 9 13 12 14 18 18 8
34 36 29 28 27 25 24 23 24 22 21 21 20 19 17 15 15 12 13 12 10 8 3 2 2 4 4 6 5 5 5 4 2 2 1 3 4 6 8 9 10 11 15 18 21 21 19
24 17 25 31 28 25 24 23 27 24 23 22 22 19 17 16 15 13 13 12 9 3 4 3 2 2 3 6 6 5 4 4 4 3 4 5 7 8 7 10 11 12 14 19 16 12 2
32 27 25 29 27 25 27 26 27 26 23 26 23 20 18 17 14 13 12 10 5 5 4 3 3 2 6 7 3 3 3 6 4 3 2 6 7 8 8 6 6 5 11 6 4 2 3
36 31 29 30 30 31 27 28 29 28 27 32 27 24 20 17 14 12 10 7 6 4 5 5 4 7 5 0 1 5 3 4 2 0 2 1 2 4 3 5 7 11 4 1 4 2 5
23 27 34 29 36 36 33 30 30 31 31 34 27 26 21 16 14 13 11 7 4 5 6 5 7 6 3 3 4 2 4 1 1 1 1 2 2 5 11 10 7 3 2 3 5 7 4
19 26 27 36 30 30 30 34 31 32 31 33 29 26 20 15 14 13 12 10 8 8 8 9 7 5 4 3 4 2 3 2 2 4 2 2 5 9 9 8 9 7 6 3 2 2 5
32 28 31 30 32 36 33 33 29 31 31 34 32 27 23 17 16 17 17 13 12 12 11 9 8 8 6 6 4 3 4 5 5 2 7 10 5 5 9 9 11 12 9 6 5 5 4
36 34 35 36 37 34 38 32 27 27 27 27 29 28 23 19 18 19 19 16 14 12 11 11 10 11 10 7 7 5 6 5 5 7 12 12 9 9 12 16 18 17 14 13 8 7 10
35 39 36 40 37 41 34 36 35 32 27 31 29 30 26 20 19 21 19 16 14 13 12 11 12 11 10 9 5 6 7 8 10 14 9 12 7 6 6 7 11 14 12 15 19 23 26
30 34 35 38 39 38 40 39 37 33 31 27 28 29 24 18 21 18 18 18 17 15 13 17 17 17 16 15 12 9 9 9 14 20 17 16 17 21 18 21 27 23 22 20 21 19 34
27 19 24 30 37 35 35 36 36 28 35 25 33 26 23 15 19 19 21 21 17 19 19 16 17 20 20 14 15 18 18 19 20 20 17 15 22 25 29 30 34 36 35 34 37 42 35
32 20 20 34 30 35 37 34 39 25 28 27 31 29 23 23 19 18 19 26 18 17 14 16 19 19 14 17 18 18 20 23 22 20 18 19 22 27 36 32 32 35 30 30 35 38 43
28 20 20 22 24 33 28 27 25 24 21 25 24 26 27 24 23 21 24 21 16 17 18 19 17 19 18 18 21 24 25 26 20 19 22 27 26 23 20 22 26 31 19 12 16 25 26
29 23 18 19 22 19 21 27 20 25 31 33 33 34 29 30 29 23 23 23 20 20 17 16 17 20 21 22 22 24 23 24 25 28 29 32 24 19 20 23 5 14 13 26 32 31 26
40 36 19 22 19 19 21 23 30 34 34 31 32 31 38 37 27 23 19 18 20 21 19 20 20 22 19 18 18 15 17 21 23 27 28 28 25 15 8 9 29 33 22 19 22 38 32
43 37 35 28 30 31 28 29 27 29 33 37 36 41 31 26 27 22 17 20 23 21 22 22 21 21 19 16 15 7 7 9 6 7 10 19 23 25 12 7 7 22 27 35 29 35 16
31 31 31 33 29 28 24 25 27 30 29 32 32 28 22 19 26 22 20 20 19 21 23 21 18 15 15 18 16 12 13 16 10 10 9 13 18 30 31 15 23 24 19 27 14 22 25
27 26 26 28 28 25 24 23 23 24 27 27 25 22 23 24 25 20 24 22 18 19 23 18 15 17 17 18 13 15 14 15 15 21 15 18 13 16 17 13 18 26 26 26 32 35 42
25 23 23 23 24 24 23 20 20 22 24 22 26 29 28 23 16 20 22 20 21 23 23 24 23 19 11 12 11 10 14 21 28 29 29 24 28 23 22 29 37 42 44 46 48 47 45
Wind_Direction
207 205 204 202 204 197 200 205 203 201 235 293 321 345 353 356 4 11 12 14 10 1 352 334 323 319 314 303 291 288 279 273 267 257 247 246 245 247 246 249 249 252 255 257 262 264 262
214 215 214 214 217 217 215 224 232 234 248 270 300 322 337 342 343 352 357 356 357 356 356 354 342 315 306 295 291 292 282 269 266 259 251 249 246 243 248 250 251 256 258 260 260 261 264
217 218 219 223 224 228 227 231 237 245 258 267 284 303 320 330 333 335 338 340 341 344 338 333 327 323 311 298 288 284 283 278 265 261 251 245 245 245 250 254 255 258 262 264 264 266 263
223 222 223 225 226 231 232 237 239 248 254 264 275 290 306 316 321 323 325 327 327 328 327 325 319 316 308 298 287 285 287 280 279 271 262 252 244 243 247 253 262 270 275 272 274 272 270
223 224 225 226 228 229 231 235 239 242 248 253 262 277 294 306 312 316 318 318 319 320 318 316 316 314 303 303 307 293 283 290 293 279 261 257 250 252 255 258 269 273 274 283 288 289 282
223 224 224 227 227 230 233 237 239 241 245 248 259 275 294 302 307 311 314 314 318 321 319 319 317 313 292 290 289 282 279 277 273 270 264 261 259 260 263 264 264 278 293 295 300 294 290
223 223 224 227 229 231 234 239 245 245 244 247 257 270 285 296 304 307 310 315 319 318 320 316 309 303 299 294 284 279 276 271 264 260 260 263 263 262 270 274 274 279 283 287 293 293 295
222 223 223 225 228 230 233 236 243 248 247 248 253 268 281 292 297 302 309 316 320 318 320 314 317 330 352 353 332 305 285 272 265 259 257 260 270 275 275 277 282 285 290 294 300 297 300
223 220 224 224 228 231 232 235 237 244 250 249 256 264 276 286 292 297 306 313 319 323 315 301 318 17 9 40 54 48 30 300 274 270 268 268 272 291 293 294 293 296 297 299 297 303 303
226 224 223 225 230 235 236 237 237 236 244 249 253 261 271 277 283 290 297 306 316 322 302 290 218 354 39 99 43 34 31 21 1 321 297 285 285 280 278 289 299 302 304 304 305 308 299
224 231 230 228 228 231 240 244 242 236 239 247 252 259 264 268 277 283 293 299 308 315 338 254 147 138 65 46 4 355 348 351 10 343 312 279 291 300 299 298 301 299 304 305 302 294 294
243 233 227 226 235 235 236 243 244 243 243 245 250 252 255 262 268 277 288 295 302 280 247 205 174 163 341 339 330 322 327 343 333 317 287 281 283 291 289 292 298 299 308 310 297 291 283
231 240 234 234 231 238 241 239 244 242 247 247 242 241 248 255 262 274 279 289 287 233 226 206 203 252 319 328 339 73 3 332 322 322 329 301 289 283 287 302 318 335 334 313 341 354 259
227 234 229 242 234 236 242 233 239 242 243 246 235 236 243 247 261 272 262 263 241 238 231 232 261 302 306 243 291 321 338 332 313 171 287 232 292 316 322 323 307 312 330 222 247 269 284
238 236 231 235 239 241 238 233 246 254 247 239 211 233 231 240 254 257 247 237 226 228 238 253 296 294 214 189 319 294 327 145 81 65 11 279 244 289 292 297 303 299 301 284 266 288 305
252 251 247 236 238 223 222 233 246 243 242 226 213 227 220 229 245 241 233 238 240 238 241 263 284 250 223 264 305 292 304 254 289 305 300 244 281 265 273 286 286 262 251 250 231 335 295
231 241 259 254 237 232 241 252 237 236 235 222 224 215 216 224 241 234 233 245 256 246 247 260 253 236 261 285 262 268 241 273 289 318 311 312 269 265 265 273 276 265 248 240 220 226 200
234 237 246 260 237 244 242 230 217 219 220 233 223 207 214 217 224 227 239 252 256 244 243 257 241 246 254 250 272 264 244 233 275 298 303 294 279 265 273 276 266 260 255 248 221 226 225
235 239 249 247 237 236 236 223 226 241 230 227 229 226 215 209 224 229 241 250 248 241 237 237 236 241 234 246 263 244 233 252 269 298 287 286 250 297 276 264 264 255 260 255 254 255 250
243 256 256 236 224 229 221 225 223 231 224 214 221 210 212 218 228 243 239 241 241 241 245 238 245 250 251 253 260 254 244 261 275 291 282 278 260 254 249 280 285 277 275 267 253 246 260
237 259 248 225 232 219 214 225 217 214 219 224 216 214 206 216 231 247 234 238 240 255 255 246 244 250 251 253 261 256 258 272 280 281 269 272 272 276 279 284 284 282 278 274 259 262 253
236 261 230 208 213 211 208 218 212 201 193 219 232 223 230 245 246 245 236 239 242 238 246 251 264 255 250 256 257 264 271 280 279 267 258 272 277 285 285 289 285 282 281 278 271 266 266
229 241 238 200 210 208 216 202 200 195 204 231 232 232 239 249 261 254 244 250 254 247 257 270 252 253 256 257 258 269 274 277 269 265 268 277 276 284 289 291 293 291 297 258 265 279 279
205 218 197 201 194 194 201 208 208 218 221 236 231 244 236 245 256 246 251 254 255 254 262 261 246 256 268 267 265 271 271 269 268 269 269 268 266 268 277 296 289 293 282 292 293 291 288
219 217 188 196 199 212 219 208 216 223 226 219 229 229 245 253 249 245 248 248 247 260 257 244 256 273 267 267 274 281 278 277 272 265 262 259 251 246 255 256 282 295 291 284 291 299 301
220 216 200 216 224 222 214 216 220 218 214 221 221 235 239 246 245 238 235 242 253 254 234 246 260 268 266 263 272 260 256 269 269 266 247 244 240 232 236 251 244 292 295 298 301 298 299
211 212 208 212 215 216 214 215 216 222 219 221 225 232 221 226 230 246 232 252 243 229 241 254 252 265 260 259 259 257 257 253 255 239 257 248 242 231 236 246 269 275 284 294 281 301 299
211 215 212 209 206 207 211 214 219 219 214 214 207 219 225 225 233 236 246 246 250 249 251 253 255 260 258 251 251 258 257 257 254 258 266 268 258 246 232 231 264 287 285 281 292 290 298
214 213 214 213 207 206 208 205 203 206 206 202 211 211 230 232 229 243 244 246 253 257 253 246 253 257 247 250 251 252 262 271 278 274 276 264 267 265 255 269 280 284 283 285 290 293 296